Location: Tel Aviv
(32.0670°N, 34.7670°E)
Time: 02:50:07
(UTC+03:00)

Tiros 1 - Pass Details

Date: 27 January 2022
Orbit: 629 x 663 km, 48.4° (Epoch: 26 May)

Event Time Altitude Azimuth Distance (km) Brightness Sun altitude
Rises 05:02:57 0° 301° (WNW) 2,968 - -20.2°
Reaches altitude 10° 05:05:26 10° 293° (WNW) 2,049 - -19.6°
Exits shadow 05:09:05 35° 247° (WSW) 1,049 7.8 -18.9°
Maximum altitude 05:09:46 37° 227° (SW) 1,007 7.8 -18.7°
Drops below altitude 10° 05:14:02 10° 160° (SSE) 2,019 10.1 -17.8°
Sets 05:16:29 0° 152° (SSE) 2,919 11.1 -17.3°
